Time,TemperatureF,DewpointF,PressureIn,WindDirection,WindDirectionDegrees,WindSpeedMPH,WindSpeedGustMPH,Humidity,HourlyPrecipIn,Conditions,Clouds,dailyrainin,SoftwareType,DateUTC
2013-04-20 00:06:00,29.2,24.0,30.08,NW,315,3.0,13.0,82,0.00,,,0.04,weatherlink.com 1.10,2013-04-20 05:06:00,
2013-04-20 00:21:00,28.9,24.0,30.09,WNW,294,7.0,13.0,82,0.00,,,0.04,weatherlink.com 1.10,2013-04-20 05:21:00,
2013-04-20 00:36:00,28.8,24.0,30.10,NNW,332,6.0,10.0,82,0.00,,,0.04,weatherlink.com 1.10,2013-04-20 05:36:00,
2013-04-20 00:51:00,28.6,24.0,30.10,NNW,333,4.0,11.0,82,0.00,,,0.04,weatherlink.com 1.10,2013-04-20 05:51:00,
2013-04-20 01:06:00,28.3,24.0,30.10,North,360,6.0,12.0,82,0.00,,,0.04,weatherlink.com 1.10,2013-04-20 06:06:00,
2013-04-20 01:21:00,28.1,23.0,30.11,WNW,287,4.0,10.0,82,0.00,,,0.00,weatherlink.com 1.10,2013-04-20 06:21:00,
2013-04-20 01:36:00,27.9,23.0,30.11,WNW,301,8.0,11.0,82,0.00,,,0.00,weatherlink.com 1.10,2013-04-20 06:36:00,
2013-04-20 01:51:00,27.8,23.0,30.11,NW,310,10.0,12.0,81,0.00,,,0.00,weatherlink.com 1.10,2013-04-20 06:51:00,
2013-04-20 02:06:00,27.6,23.0,30.12,NW,315,9.0,13.0,82,0.00,,,0.00,weatherlink.com 1.10,2013-04-20 07:06:00,
2013-04-20 02:21:00,27.5,22.0,30.12,NNW,336,8.0,12.0,81,0.00,,,0.00,weatherlink.com 1.10,2013-04-20 07:21:00,
2013-04-20 02:36:00,27.3,22.0,30.12,NW,316,5.0,11.0,81,0.00,,,0.00,weatherlink.com 1.10,2013-04-20 07:36:00,
2013-04-20 02:51:00,27.2,22.0,30.13,WNW,287,7.0,12.0,82,0.00,,,0.00,weatherlink.com 1.10,2013-04-20 07:51:00,
2013-04-20 03:06:00,27.0,22.0,30.13,NW,321,6.0,11.0,82,0.00,,,0.00,weatherlink.com 1.10,2013-04-20 08:06:00,
2013-04-20 03:21:00,26.7,22.0,30.13,NW,307,5.0,9.0,83,0.00,,,0.00,weatherlink.com 1.10,2013-04-20 08:21:00,
2013-04-20 03:36:00,26.4,22.0,30.14,NW,320,4.0,11.0,83,0.00,,,0.00,weatherlink.com 1.10,2013-04-20 08:36:00,
2013-04-20 03:51:00,26.1,22.0,30.14,NW,304,7.0,9.0,83,0.00,,,0.00,weatherlink.com 1.10,2013-04-20 08:51:00,
2013-04-20 04:06:00,26.0,22.0,30.14,NNW,333,2.0,10.0,83,0.00,,,0.00,weatherlink.com 1.10,2013-04-20 09:06:00,
2013-04-20 04:21:00,25.7,21.0,30.15,NW,313,2.0,8.0,83,0.00,,,0.00,weatherlink.com 1.10,2013-04-20 09:21:00,
2013-04-20 04:36:00,25.3,21.0,30.15,WNW,303,4.0,8.0,84,0.00,,,0.00,weatherlink.com 1.10,2013-04-20 09:36:00,
2013-04-20 04:51:00,25.1,21.0,30.16,NW,305,4.0,8.0,84,0.00,,,0.00,weatherlink.com 1.10,2013-04-20 09:51:00,
2013-04-20 05:06:00,24.9,21.0,30.16,NNW,329,6.0,6.0,85,0.00,,,0.00,weatherlink.com 1.10,2013-04-20 10:06:00,
2013-04-20 05:22:00,24.7,21.0,30.16,NNW,344,4.0,7.0,85,0.00,,,0.00,weatherlink.com 1.10,2013-04-20 10:22:00,
2013-04-20 05:37:00,24.5,21.0,30.17,NNW,327,4.0,9.0,85,0.00,,,0.00,weatherlink.com 1.10,2013-04-20 10:37:00,
2013-04-20 05:52:00,24.2,20.0,30.18,NNW,333,6.0,8.0,85,0.00,,,0.00,weatherlink.com 1.10,2013-04-20 10:52:00,
2013-04-20 06:07:00,23.9,20.0,30.18,NW,319,5.0,8.0,86,0.00,,,0.00,weatherlink.com 1.10,2013-04-20 11:07:00,
2013-04-20 06:22:00,23.6,20.0,30.19,NW,325,6.0,7.0,87,0.00,,,0.00,weatherlink.com 1.10,2013-04-20 11:22:00,
2013-04-20 06:37:00,23.5,20.0,30.20,NW,319,5.0,6.0,87,0.00,,,0.00,weatherlink.com 1.10,2013-04-20 11:37:00,
2013-04-20 06:52:00,23.5,20.0,30.21,NW,315,4.0,6.0,87,0.00,,,0.00,weatherlink.com 1.10,2013-04-20 11:52:00,
2013-04-20 07:07:00,23.8,21.0,30.22,NW,313,3.0,6.0,87,0.00,,,0.00,weatherlink.com 1.10,2013-04-20 12:07:00,
2013-04-20 07:22:00,24.4,21.0,30.23,NW,320,4.0,6.0,87,0.00,,,0.00,weatherlink.com 1.10,2013-04-20 12:22:00,
2013-04-20 07:37:00,24.9,21.0,30.23,NNW,329,2.0,6.0,86,0.00,,,0.00,weatherlink.com 1.10,2013-04-20 12:37:00,
2013-04-20 07:52:00,25.4,22.0,30.24,NNW,340,3.0,7.0,85,0.00,,,0.00,weatherlink.com 1.10,2013-04-20 12:52:00,
2013-04-20 08:07:00,26.2,22.0,30.25,North,355,4.0,10.0,84,0.00,,,0.00,weatherlink.com 1.10,2013-04-20 13:07:00,
2013-04-20 08:22:00,26.8,23.0,30.25,North,11,3.0,8.0,84,0.00,,,0.00,weatherlink.com 1.10,2013-04-20 13:22:00,
2013-04-20 08:37:00,27.8,23.0,30.26,North,355,6.0,8.0,83,0.00,,,0.00,weatherlink.com 1.10,2013-04-20 13:37:00,
2013-04-20 08:52:00,28.0,23.0,30.26,WNW,297,5.0,8.0,82,0.00,,,0.00,weatherlink.com 1.10,2013-04-20 13:52:00,
2013-04-20 09:07:00,29.0,24.0,30.27,NNE,17,2.0,8.0,81,0.00,,,0.00,weatherlink.com 1.10,2013-04-20 14:07:00,
2013-04-20 09:22:00,29.6,24.0,30.27,North,5,6.0,6.0,79,0.00,,,0.00,weatherlink.com 1.10,2013-04-20 14:22:00,
2013-04-20 09:37:00,30.9,24.0,30.27,NW,312,4.0,8.0,75,0.00,,,0.00,weatherlink.com 1.10,2013-04-20 14:37:00,
2013-04-20 09:52:00,32.6,23.0,30.28,NE,53,3.0,8.0,69,0.00,,,0.00,weatherlink.com 1.10,2013-04-20 14:52:00,
2013-04-20 10:07:00,33.9,22.0,30.28,ENE,71,0.0,8.0,62,0.00,,,0.00,weatherlink.com 1.10,2013-04-20 15:07:00,
2013-04-20 10:22:00,34.4,23.0,30.29,ENE,60,7.0,8.0,63,0.00,,,0.00,weatherlink.com 1.10,2013-04-20 15:22:00,
2013-04-20 10:37:00,34.6,23.0,30.30,ENE,75,3.0,7.0,63,0.00,,,0.00,weatherlink.com 1.10,2013-04-20 15:37:00,
2013-04-20 10:53:00,35.3,20.0,30.30,ENE,61,1.0,8.0,55,0.00,,,0.00,weatherlink.com 1.10,2013-04-20 15:53:00,
2013-04-20 11:08:00,35.7,19.0,30.30,East,81,2.0,7.0,51,0.01,,,0.01,weatherlink.com 1.10,2013-04-20 16:08:00,
2013-04-20 11:23:00,36.5,20.0,30.30,NE,44,3.0,9.0,52,0.01,,,0.01,weatherlink.com 1.10,2013-04-20 16:23:00,
2013-04-20 11:38:00,37.1,19.0,30.30,SSE,155,3.0,9.0,49,0.01,,,0.01,weatherlink.com 1.10,2013-04-20 16:38:00,
2013-04-20 11:53:00,37.8,21.0,30.30,ESE,111,0.0,10.0,50,0.01,,,0.01,weatherlink.com 1.10,2013-04-20 16:53:00,
2013-04-20 12:08:00,38.4,18.0,30.30,NE,45,2.0,10.0,43,0.00,,,0.01,weatherlink.com 1.10,2013-04-20 17:08:00,
2013-04-20 12:38:00,38.6,18.0,30.30,South,173,1.0,9.0,43,0.00,,,0.01,weatherlink.com 1.10,2013-04-20 17:38:00,
2013-04-20 12:53:00,39.7,20.0,30.30,East,86,5.0,9.0,46,0.00,,,0.01,weatherlink.com 1.10,2013-04-20 17:53:00,
2013-04-20 13:08:00,39.7,20.0,30.30,ENE,59,4.0,8.0,45,0.00,,,0.01,weatherlink.com 1.10,2013-04-20 18:08:00,
2013-04-20 13:23:00,40.3,19.0,30.30,ENE,71,7.0,9.0,43,0.00,,,0.01,weatherlink.com 1.10,2013-04-20 18:23:00,
2013-04-20 13:38:00,41.1,20.0,30.30,South,186,2.0,6.0,43,0.00,,,0.01,weatherlink.com 1.10,2013-04-20 18:38:00,
2013-04-20 13:53:00,40.9,19.0,30.29,SSW,208,3.0,10.0,42,0.00,,,0.01,weatherlink.com 1.10,2013-04-20 18:53:00,
2013-04-20 14:23:00,41.4,21.0,30.29,ENE,74,4.0,8.0,44,0.00,,,0.01,weatherlink.com 1.10,2013-04-20 19:23:00,
2013-04-20 14:38:00,41.6,18.0,30.28,West,260,3.0,9.0,39,0.00,,,0.01,weatherlink.com 1.10,2013-04-20 19:38:00,
2013-04-20 14:53:00,42.5,17.0,30.28,South,178,2.0,10.0,36,0.00,,,0.01,weatherlink.com 1.10,2013-04-20 19:53:00,
2013-04-20 15:08:00,42.5,21.0,30.27,SE,144,5.0,10.0,43,0.00,,,0.01,weatherlink.com 1.10,2013-04-20 20:08:00,
2013-04-20 15:23:00,43.7,21.0,30.27,SSE,150,3.0,9.0,41,0.00,,,0.01,weatherlink.com 1.10,2013-04-20 20:23:00,
2013-04-20 15:38:00,43.7,21.0,30.27,SSE,150,4.0,8.0,40,0.00,,,0.01,weatherlink.com 1.10,2013-04-20 20:38:00,
2013-04-20 15:53:00,43.7,21.0,30.27,SSW,203,2.0,8.0,41,0.00,,,0.01,weatherlink.com 1.10,2013-04-20 20:53:00,
2013-04-20 16:08:00,43.7,21.0,30.27,ESE,111,3.0,9.0,41,0.00,,,0.01,weatherlink.com 1.10,2013-04-20 21:08:00,
2013-04-20 16:23:00,44.1,20.0,30.26,SW,223,2.0,9.0,39,0.00,,,0.01,weatherlink.com 1.10,2013-04-20 21:23:00,
2013-04-20 16:38:00,44.0,21.0,30.26,SSE,149,5.0,10.0,40,0.00,,,0.01,weatherlink.com 1.10,2013-04-20 21:38:00,
2013-04-20 16:53:00,43.8,21.0,30.26,ESE,113,0.0,7.0,41,0.00,,,0.01,weatherlink.com 1.10,2013-04-20 21:53:00,
2013-04-20 17:08:00,43.6,23.0,30.25,SE,131,2.0,11.0,44,0.00,,,0.01,weatherlink.com 1.10,2013-04-20 22:08:00,
2013-04-20 17:23:00,43.8,21.0,30.25,SSE,163,1.0,8.0,40,0.00,,,0.01,weatherlink.com 1.10,2013-04-20 22:23:00,
2013-04-20 17:38:00,44.0,23.0,30.25,ESE,113,4.0,7.0,44,0.00,,,0.01,weatherlink.com 1.10,2013-04-20 22:38:00,
2013-04-20 17:53:00,43.7,23.0,30.25,South,186,3.0,7.0,44,0.00,,,0.01,weatherlink.com 1.10,2013-04-20 22:53:00,
2013-04-20 18:08:00,43.2,23.0,30.24,SE,141,2.0,7.0,45,0.00,,,0.01,weatherlink.com 1.10,2013-04-20 23:08:00,
2013-04-20 18:23:00,43.2,23.0,30.23,ESE,118,4.0,8.0,45,0.00,,,0.01,weatherlink.com 1.10,2013-04-20 23:23:00,
2013-04-20 18:38:00,43.1,23.0,30.23,SE,130,5.0,9.0,46,0.00,,,0.01,weatherlink.com 1.10,2013-04-20 23:38:00,
2013-04-20 18:53:00,42.9,23.0,30.23,SE,146,3.0,9.0,45,0.00,,,0.01,weatherlink.com 1.10,2013-04-20 23:53:00,
2013-04-20 19:08:00,42.7,23.0,30.23,SSE,163,4.0,9.0,46,0.00,,,0.01,weatherlink.com 1.10,2013-04-21 00:08:00,
2013-04-20 19:23:00,42.6,24.0,30.24,SE,131,1.0,7.0,49,0.00,,,0.01,weatherlink.com 1.10,2013-04-21 00:23:00,
2013-04-20 19:38:00,42.3,25.0,30.24,SE,133,5.0,7.0,51,0.00,,,0.01,weatherlink.com 1.10,2013-04-21 00:38:00,
2013-04-20 19:53:00,42.1,24.0,30.25,SE,134,2.0,5.0,48,0.00,,,0.01,weatherlink.com 1.10,2013-04-21 00:53:00,
2013-04-20 20:08:00,41.8,25.0,30.25,SSE,155,5.0,5.0,52,0.00,,,0.01,weatherlink.com 1.10,2013-04-21 01:08:00,
2013-04-20 20:23:00,41.7,25.0,30.25,SE,131,2.0,7.0,52,0.00,,,0.01,weatherlink.com 1.10,2013-04-21 01:23:00,
2013-04-20 20:38:00,41.5,26.0,30.25,SSE,150,0.0,5.0,54,0.00,,,0.01,weatherlink.com 1.10,2013-04-21 01:38:00,
2013-04-20 20:53:00,41.3,27.0,30.26,SE,139,1.0,6.0,58,0.00,,,0.01,weatherlink.com 1.10,2013-04-21 01:53:00,
2013-04-20 21:08:00,41.0,27.0,30.26,ESE,118,3.0,4.0,59,0.00,,,0.01,weatherlink.com 1.10,2013-04-21 02:08:00,
2013-04-20 21:23:00,40.9,27.0,30.27,SSE,164,3.0,8.0,59,0.00,,,0.01,weatherlink.com 1.10,2013-04-21 02:23:00,
2013-04-20 21:38:00,40.7,28.0,30.27,SE,146,3.0,9.0,61,0.00,,,0.01,weatherlink.com 1.10,2013-04-21 02:38:00,
2013-04-20 21:53:00,40.5,28.0,30.27,East,90,5.0,7.0,61,0.00,,,0.01,weatherlink.com 1.10,2013-04-21 02:53:00,
2013-04-20 22:08:00,40.2,29.0,30.27,SSE,161,2.0,8.0,64,0.00,,,0.01,weatherlink.com 1.10,2013-04-21 03:08:00,
2013-04-20 22:23:00,40.0,29.0,30.27,ESE,117,3.0,8.0,64,0.00,,,0.01,weatherlink.com 1.10,2013-04-21 03:23:00,
2013-04-20 22:38:00,40.0,29.0,30.27,SE,144,4.0,8.0,64,0.00,,,0.01,weatherlink.com 1.10,2013-04-21 03:38:00,
2013-04-20 22:53:00,40.0,28.0,30.27,ESE,122,2.0,6.0,63,0.00,,,0.01,weatherlink.com 1.10,2013-04-21 03:53:00,
2013-04-20 23:08:00,39.8,29.0,30.25,NW,326,1.0,8.0,65,0.00,,,0.01,weatherlink.com 1.10,2013-04-21 04:08:00,
2013-04-20 23:23:00,39.7,28.0,30.26,SE,136,3.0,10.0,64,0.00,,,0.01,weatherlink.com 1.10,2013-04-21 04:23:00,
2013-04-20 23:38:00,40.1,27.0,30.28,South,181,3.0,9.0,61,0.00,,,0.01,weatherlink.com 1.10,2013-04-21 04:38:00,
2013-04-20 23:53:00,40.0,28.0,30.28,SE,131,2.0,5.0,63,0.00,,,0.01,weatherlink.com 1.10,2013-04-21 04:53:00,